Tracking 18840 objects as of 18-November-2017
HD Live streaming from Space Station
objects crossing your sky now

FENGYUN 1C DEB

Track FENGYUN 1C DEB now!
10-day predictions


NORAD ID: 29762
Int'l Code: 1999-025BC
Perigee: 682.7 km
Apogee: 988.8 km
Inclination: 98.7 °
Period: 101.5 minutes
Semi major axis: 7206 km
RCS: 0.033 m2 (small)
Launch date: May 10, 1999
Source: People's Republic of China (PRC)
Launch site: Taiyaun Space Center, China (TSC)

Note: This is SATELLITE DEBRIS
aabbcc
Your satellite tracking list
Your tracking list is empty




NASA's NSSDC Master Catalog

Two Line Element Set (TLE):
1 29762U 99025BC  17321.77863362  .00000105  00000-0  58350-4 0  9998
2 29762  98.6554 358.9842 0212385 230.8645 194.0484 14.19048338561309
Source of the keplerian elements: AFSPC